Location: Unspecified
(0.0000°N, 0.0000°E)
Time: 00:16:52
(UTC+00:00)

OFEQ 7 - Pass Details

Date: 10 June 2023
Orbit: 475 x 482 km, 141.7° (Epoch: 03 October)

Event Time Altitude Azimuth Distance (km) Brightness Sun altitude
Rises 05:01:19 0° 122° (ESE) 2,434 9.1 -13.3°
Reaches altitude 10° 05:03:16 10° 120° (ESE) 1,560 8.1 -12.9°
Maximum altitude 05:06:27 69° 37° (NE) 476 5.2 -12.2°
Drops below altitude 10° 05:09:38 10° 312° (NW) 1,555 7.4 -11.4°
Sets 05:11:34 0° 310° (NW) 2,424 8.3 -11.0°
